Weather History for Eureka, NV

Change the Weather History Date:

Friday, September 20, 2013

  Actual Average Record
Temperature  
Mean Temperature 58 °F 56 °F  
Max Temperature 80 °F 76 °F 85 °F (2001)
Min Temperature 36 °F 37 °F 16 °F (1983)
Degree Days  
Heating Degree Days 7 9  
Month to date heating degree days 58 109  
Since 1 July heating degree days 59 156  
Cooling Degree Days 0 0  
Month to date cooling degree days 44 9  
Year to date cooling degree days 585 286  
Growing Degree Days 8 (Base 50)    
Moisture  
Dew Point 23 °F    
Average Humidity 35    
Maximum Humidity 59    
Minimum Humidity 10    
Precipitation  
Precipitation 0.00 in 0.02 in 0.26 in (2005)
Month to date precipitation 1.02 0.39  
Year to date precipitation 5.97 6.68  
Sea Level Pressure  
Sea Level Pressure 29.80 in    
Wind  
Wind Speed 11 mph (South)    
Max Wind Speed 28 mph    
Max Gust Speed 33 mph    
T = Trace of Precipitation, MM = Missing Value Source: NWS Daily Summary

Daily Weather History Graph

Daily Weather History Graph

Search for Another Location

Airport:

Trip Planner

Search our weather history database for the weather conditions in past years. The results will help you decide how hot, cold, wet, or windy it might be!

Date:

Astronomy

Sep. 20, 2013 Rise Set
Actual Time 6:30 AM PDT 6:43 PM PDT
Civil Twilight 6:03 AM PDT 7:10 PM PDT
Nautical Twilight 5:31 AM PDT 7:42 PM PDT
Astronomical Twilight 4:59 AM PDT 8:14 PM PDT
Moon 7:20 PM PDT (9/20) 7:49 AM PDT (9/20)
Length of Visible Light 13h 07m
Length of Day
12h 13m
Full, 98% of the Moon is Illuminated
Sep 20
Full
Sep 26
Last Quarter
Oct 4
New
Oct 11
First Quarter
Oct 18
Full

Hourly Weather History & Observations

Time (PDT) Temp. Windchill Dew Point Humidity Pressure Visibility Wind Dir Wind Speed Gust Speed Precip Events Conditions
12:53 AM 44.1 °F - 24.1 °F 45% 29.91 in - Calm Calm - N/A   Unknown
1:53 AM 41.0 °F - 24.1 °F 51% 29.91 in - Calm Calm - N/A   Unknown
2:53 AM 43.0 °F 40.3 °F 24.1 °F 47% 29.89 in - SSW 4.6 mph - N/A   Unknown
3:53 AM 42.1 °F 37.7 °F 24.1 °F 49% 29.89 in - SSW 6.9 mph - N/A   Unknown
4:53 AM 42.1 °F 37.7 °F 23.0 °F 47% 29.89 in - South 6.9 mph - N/A   Unknown
5:53 AM 37.0 °F 33.3 °F 24.1 °F 59% 29.91 in - SW 4.6 mph - N/A   Unknown
6:53 AM 39.9 °F 35.8 °F 25.0 °F 55% 29.94 in - SSW 5.8 mph - N/A   Unknown
7:53 AM 48.0 °F - 26.1 °F 42% 29.94 in - Calm Calm - N/A   Unknown
8:53 AM 59.0 °F - 27.0 °F 29% 29.91 in - Calm Calm - N/A   Unknown
9:53 AM 68.0 °F - 27.0 °F 21% 29.87 in - South 10.4 mph 17.3 mph N/A   Unknown
10:53 AM 71.1 °F - 25.0 °F 18% 29.83 in - SE 13.8 mph - N/A   Unknown
11:53 AM 75.0 °F - 19.0 °F 12% 29.80 in - South 17.3 mph 24.2 mph N/A   Unknown
12:53 PM 77.0 °F - 23.0 °F 13% 29.79 in - South 18.4 mph 25.3 mph N/A   Unknown
1:53 PM 78.1 °F - 17.1 °F 10% 29.76 in - South 16.1 mph 27.6 mph N/A   Unknown
2:53 PM 79.0 °F - 19.0 °F 11% 29.73 in - South 18.4 mph 26.5 mph N/A   Unknown
3:53 PM 80.1 °F - 21.0 °F 11% 29.71 in - South 21.9 mph 26.5 mph N/A   Unknown
4:53 PM 78.1 °F - 21.0 °F 12% 29.70 in - SSE 21.9 mph 29.9 mph N/A   Unknown
5:53 PM 77.0 °F - 21.9 °F 13% 29.71 in - South 18.4 mph 27.6 mph N/A   Unknown
6:53 PM 71.1 °F - 21.9 °F 16% 29.72 in - SSE 13.8 mph - N/A   Unknown
7:53 PM 64.9 °F - 24.1 °F 21% 29.74 in - South 10.4 mph - N/A   Unknown
8:53 PM 64.0 °F - 23.0 °F 21% 29.71 in - South 8.1 mph - N/A   Unknown
9:53 PM 63.0 °F - 23.0 °F 22% 29.68 in - SSE 15.0 mph - N/A   Unknown
10:53 PM 60.1 °F - 24.1 °F 25% 29.68 in - South 4.6 mph - N/A   Unknown
11:53 PM 64.9 °F - 23.0 °F 20% 29.64 in - South 16.1 mph - N/A   Unknown